{"data":{"norad_id":59431,"intl_designator":"2024-065L","name":"STARLINK-31613","alt_names":[],"object_type":"PAYLOAD","status":"ACTIVE","operator":null,"country":"US","launch_date":"2024-04-07","launch_site_code":"AFWTR","launch_vehicle":null,"mission":null,"orbit_class":"UNKNOWN","rcs_meters":null,"size_class":null,"mass_kg":null,"dimensions":null,"purposes":["comms"],"wikipedia_slug":null,"has_3d_model":false,"image_url":null,"decayed_at":null,"tle_current":{"epoch":"2026-05-25T03:05:11.344992Z","epoch_age_seconds":57931,"freshness":"FRESH","line1":"1 59431U 24065L   26145.12860353  .00000900  00000+0  42519-4 0  9998","line2":"2 59431  53.1614 286.5468 0001218  81.8365 278.2774 15.30197143120639","mean_motion":15.30197143,"eccentricity":0.0001218,"inclination_deg":53.1614,"raan_deg":286.5468,"arg_perigee_deg":81.8365,"mean_anomaly_deg":278.2774,"bstar":4.2519e-5,"rev_number":12063,"period_min":94.105521408623,"perigee_km":474.38886059855,"apogee_km":476.05833924069,"semimajor_km":6853.3605999196,"source":"CELESTRAK","updated_at":"2026-05-25T13:38:18.945721Z"}}}